Dewpoint
54 53 53 52 51 51 50 50 50 50 50 51 50 50 50 50 51 48 45 46 48 43 44 43 41 41 41 41 38 38 37 39 38 38 38 39 37 38 38 39 41 40 40 37 34 32 31 47 44 37 40 44 47 52
54 53 53 51 51 50 50 49 49 50 50 50 50 50 50 51 51 50 43 45 45 46 44 45 43 43 42 42 40 40 39 38 39 41 43 42 41 41 39 37 43 40 45 43 44 42 47 50 50 50 49 46 47 52
54 53 52 51 50 50 49 49 49 49 49 49 49 50 50 51 51 50 45 46 45 43 43 42 42 42 41 43 43 39 38 38 38 41 42 42 39 44 39 40 43 45 48 44 44 46 49 49 53 53 53 53 50 53
54 53 51 50 50 49 49 49 49 49 49 49 49 50 50 51 51 49 45 46 45 45 40 39 40 38 40 40 39 41 39 37 36 38 36 38 37 40 40 42 40 43 47 44 45 47 50 52 54 54 52 54 54 55
53 52 51 50 49 48 49 49 50 50 50 49 50 50 50 50 51 49 46 47 46 44 39 40 41 41 41 41 38 40 39 37 37 35 37 36 39 37 39 40 38 45 45 45 43 50 51 52 53 55 55 53 54 56
52 51 50 49 48 48 49 50 50 50 50 50 50 50 50 50 50 45 44 51 49 51 44 39 41 41 41 42 41 42 44 43 40 39 37 37 37 37 35 37 40 48 52 50 49 53 54 54 56 57 56 56 56 55
51 50 49 49 48 48 49 50 50 50 51 52 51 50 50 50 46 43 44 49 49 48 45 40 38 41 44 44 44 46 45 44 43 41 39 38 39 41 41 37 40 42 44 47 53 53 51 52 54 56 57 57 57 56
49 49 49 48 48 49 50 50 50 51 51 51 51 50 50 50 48 44 44 46 47 44 44 40 38 41 45 46 44 47 46 44 44 42 43 41 43 43 40 39 39 42 47 48 53 54 51 55 55 57 57 56 55 56
49 48 48 48 50 50 50 51 51 51 52 52 51 51 47 44 43 48 52 50 47 44 41 43 39 39 45 45 46 46 46 41 44 42 41 42 40 39 41 43 45 47 49 48 50 54 54 54 54 56 56 57 56 56
47 48 49 50 50 50 51 51 51 52 51 51 47 45 43 47 54 53 48 46 46 47 44 39 39 36 39 43 42 43 44 43 39 43 45 42 41 42 43 46 51 51 52 52 51 50 53 53 54 55 55 58 58 57
48 49 49 49 50 51 51 51 50 50 48 45 45 45 49 55 47 48 45 44 44 43 43 43 42 40 43 42 41 44 41 42 39 41 45 44 41 47 51 51 52 53 54 53 53 53 53 53 54 55 56 58 58 58
48 49 49 49 50 51 51 51 49 46 48 46 45 46 46 46 46 43 41 43 43 42 48 47 46 45 44 45 43 44 41 42 38 46 45 41 47 48 50 52 54 53 54 55 54 55 55 54 54 55 56 58 60 59
48 48 49 49 50 50 51 50 50 50 49 47 46 44 43 43 36 39 35 41 41 45 47 47 44 44 48 46 44 44 42 41 47 43 41 46 49 50 51 52 53 55 56 56 56 56 55 54 57 57 56 58 58 58
49 49 49 50 50 50 50 51 51 50 45 43 43 36 37 37 38 37 40 43 45 45 46 45 46 46 48 45 45 42 43 45 38 38 40 44 46 50 51 52 53 53 55 56 56 56 55 53 55 56 58 58 57 56
49 49 49 49 50 51 51 51 50 48 44 42 43 36 37 37 37 38 44 47 47 48 45 43 43 44 44 43 43 42 41 40 41 42 47 50 51 51 51 52 53 53 54 55 56 56 54 53 55 58 59 59 56 57
48 48 48 50 50 51 51 49 48 47 44 42 40 38 39 37 37 38 42 43 46 47 47 46 42 42 42 43 41 42 41 40 44 48 51 52 52 53 52 52 53 53 54 55 54 55 56 53 53 57 59 58 59 60
48 44 50 51 51 50 50 47 46 44 42 40 39 40 39 38 38 38 39 41 47 46 42 43 40 41 45 42 39 44 43 46 48 48 52 53 53 53 53 53 53 54 54 54 53 55 56 55 52 57 57 58 57 57
46 50 49 49 50 50 47 47 44 43 38 39 36 36 36 39 38 38 41 44 46 47 45 43 45 42 42 41 43 46 48 48 50 51 53 54 54 55 55 53 54 54 53 54 56 56 57 56 54 54 55 56 57 56
46 47 48 48 49 47 45 45 44 39 39 37 39 38 38 39 40 41 42 43 47 49 47 46 44 44 45 47 47 48 49 50 49 50 52 54 55 55 56 55 56 55 55 55 55 56 57 57 58 54 55 57 56 59
48 48 48 48 48 43 43 40 48 42 40 40 41 38 39 39 39 40 41 45 47 48 45 43 43 48 49 47 48 47 47 51 50 49 51 53 54 55 55 55 56 54 53 54 57 54 57 57 58 57 57 58 58 57
47 47 48 47 47 45 43 42 41 44 43 41 41 41 40 42 41 40 40 44 42 42 42 44 45 45 45 49 53 55 50 52 51 52 52 52 54 55 55 55 55 55 54 53 54 53 55 56 56 56 56 57 58 59
47 49 48 47 43 44 43 44 42 41 40 38 38 38 38 38 40 42 44 43 42 42 43 42 42 43 48 51 53 54 53 53 53 53 52 53 53 53 54 55 55 54 54 55 53 54 54 56 57 57 55 56 55 58
45 45 44 47 43 39 37 42 38 38 38 39 41 43 44 45 44 48 43 44 45 51 52 52 52 54 54 54 54 54 55 53 52 53 54 54 54 55 55 57 56 55 54 55 55 57 57 55 57 58 58 58 60 59
47 42 41 42 41 35 39 38 42 40 40 39 39 41 44 46 48 44 43 45 49 53 52 53 54 53 53 52 53 54 55 54 54 54 55 54 54 55 53 54 55 56 56 57 56 57 58 58 54 56 57 57 57 56
40 34 38 33 38 39 37 36 37 37 35 39 41 42 44 48 45 44 46 50 52 52 53 53 52 51 50 50 51 51 53 53 53 52 54 54 54 55 52 51 50 50 54 53 54 56 56 56 56 55 54 55 55 55
33 35 34 37 37 37 37 38 39 39 39 39 43 45 46 45 44 44 48 50 52 52 53 53 53 53 52 52 46 45 45 50 53 50 50 53 49 46 45 44 45 47 48 46 47 47 48 48 49 50 50 48 45 48
35 35 39 41 39 38 37 40 40 39 39 41 42 41 40 38 41 46 50 52 52 54 56 55 55 53 50 52 53 52 51 52 50 47 47 46 47 47 45 44 44 46 49 50 50 49 48 49 48 48 48 48 48 48
39 37 34 37 39 39 37 38 37 36 42 43 41 40 39 41 42 47 50 52 55 54 55 53 52 52 52 50 48 44 40 47 47 49 49 49 50 50 49 49 47 44 45 47 48 49 49 48 48 48 46 44 42 42
37 37 37 35 37 38 40 38 35 44 45 43 41 40 41 45 49 48 49 51 53 53 53 48 47 48 47 39 39 40 39 39 44 45 44 41 38 40 48 41 38 45 47 46 43 44 44 43 42 44 42 41 40 41
34 35 34 34 35 37 43 46 46 46 47 46 46 45 47 47 50 51 51 51 50 51 52 52 46 34 33 34 36 37 37 37 37 38 36 35 35 37 39 38 37 37 37 37 38 41 43 41 41 40 40 40 40 40
41 41 40 41 40 43 44 44 45 46 46 46 48 47 46 48 51 54 53 53 53 54 53 41 31 32 32 34 35 35 34 34 36 37 37 36 36 37 37 35 36 37 38 38 38 38 38 39 39 39 41 41 40 40
43 42 41 38 39 43 44 43 44 44 46 46 46 48 48 47 47 50 51 53 52 51 49 36 31 31 33 33 34 35 36 34 34 35 35 36 36 35 36 35 35 36 37 37 37 37 37 37 38 38 39 39 39 39
44 44 44 42 42 42 45 46 45 46 47 46 47 47 47 48 44 48 51 51 50 47 35 33 32 32 31 31 32 34 34 33 34 36 35 35 34 33 33 34 36 36 36 36 36 35 35 35 35 36 36 35 34 34
Lifted_Index
10 10 10 10 11 12 13 14 15 15 15 15 15 14 14 14 14 14 12 11 10 9 8 8 8 7 6 5 5 4 3 2 2 2 1 1 1 0 -0 -0 -1 -1 -0 0 0 1 1 0 -0 -1 -1 -2 -2 -3
10 10 10 10 11 12 13 14 15 15 15 14 14 14 14 13 13 13 12 11 10 9 8 7 7 6 6 5 5 4 3 3 2 2 2 1 1 0 0 -0 -0 -1 -0 0 0 0 0 0 -0 -1 -1 -2 -2 -3
10 10 10 11 11 12 14 15 15 15 14 14 14 13 13 13 12 12 12 11 10 8 7 7 6 5 5 5 5 4 4 3 3 3 2 2 1 1 1 0 0 -0 0 0 0 -0 -0 -0 -1 -1 -1 -2 -3 -3
10 10 11 11 12 13 14 14 14 14 14 14 13 12 12 12 12 12 11 10 9 8 7 6 5 5 4 4 4 4 3 3 3 3 3 2 1 1 1 1 1 1 0 0 0 0 -0 -1 -1 -1 -1 -2 -3 -4
10 10 10 11 12 13 14 14 13 13 13 13 12 12 12 12 11 11 10 9 8 7 6 6 6 4 3 3 3 3 3 3 3 3 3 3 2 2 2 2 2 1 0 -0 0 -0 -0 -0 -1 -1 -1 -2 -2 -3
10 10 11 12 13 14 14 13 12 12 12 12 12 11 11 11 11 10 8 7 7 7 6 6 5 4 3 2 2 2 2 2 2 2 3 3 3 3 3 3 2 1 0 0 -0 -0 -0 0 -0 -1 -1 -2 -2 -2
10 11 11 13 13 13 13 12 11 11 11 11 11 11 11 11 10 9 7 7 6 6 6 5 4 3 2 2 1 1 1 1 1 2 2 2 3 3 3 3 2 2 1 1 -0 -0 0 0 0 -0 -1 -1 -2 -2
11 11 12 13 13 12 12 11 11 11 10 11 11 11 11 10 9 8 7 6 6 6 6 5 4 2 2 1 1 1 1 1 1 2 2 2 3 3 3 2 2 2 1 1 0 -0 0 1 0 -0 -0 -1 -1 -2
12 12 13 13 12 11 11 11 10 10 10 10 10 10 9 8 7 6 6 6 6 6 5 5 3 3 2 1 1 1 1 1 1 1 2 2 2 2 2 2 1 1 1 0 0 0 0 1 1 1 0 -0 -1 -1
12 12 12 12 11 11 10 10 10 10 10 10 9 8 7 6 5 5 5 5 5 5 4 3 3 3 2 2 1 1 1 1 1 1 1 1 1 1 1 1 0 0 0 1 0 0 1 1 2 1 1 0 -0 -0
11 11 11 11 10 10 10 10 10 10 10 9 8 7 6 5 5 4 4 4 3 3 3 2 2 2 2 1 1 1 1 1 1 1 1 0 0 0 0 0 0 0 0 0 1 1 1 1 2 2 1 1 0 0
11 11 11 11 10 10 10 10 10 10 9 8 8 7 6 5 4 3 3 2 2 2 1 1 1 1 1 1 1 1 1 1 1 1 1 0 0 0 0 0 0 -0 -0 0 0 1 1 1 1 1 1 1 -0 -0
10 10 11 11 10 10 10 10 10 10 9 8 7 6 5 5 4 3 2 2 2 1 1 1 1 1 1 1 1 1 1 1 1 1 1 1 1 1 1 1 0 -0 -0 -0 0 0 0 1 1 1 1 0 -0 -0
10 10 10 10 10 10 10 9 9 9 9 7 6 6 5 4 4 3 2 2 2 2 1 1 1 1 1 2 1 1 1 1 1 1 1 1 1 1 1 1 1 0 -0 -0 -0 -0 0 1 1 1 1 1 0 0
10 10 10 10 9 9 9 9 9 9 8 7 6 5 5 4 4 3 2 2 2 1 1 1 2 2 2 2 2 1 1 1 1 1 1 1 1 1 1 1 1 1 0 0 -0 -0 0 1 1 1 1 1 0 0
10 10 9 9 9 9 9 9 8 8 7 6 6 5 5 4 4 3 3 2 2 1 1 1 2 2 2 2 2 1 1 1 1 1 1 1 1 1 1 2 2 1 1 1 1 1 1 1 1 1 1 0 -1 -1
10 9 9 9 9 8 8 8 8 7 7 6 6 5 5 4 4 3 3 2 1 1 2 2 2 1 1 1 1 1 1 1 1 1 1 1 1 1 1 1 1 2 2 2 1 1 1 0 1 1 0 -0 -1 -1
9 8 8 9 9 8 8 8 7 6 6 6 6 6 5 5 4 4 3 2 2 2 2 2 2 2 1 1 1 1 1 1 1 1 1 0 0 0 0 1 1 1 1 2 1 1 1 0 0 0 -0 -0 -0 -0
9 9 9 9 9 8 7 7 6 6 5 5 5 5 5 5 4 4 3 2 2 2 2 2 2 1 1 1 1 1 1 1 0 0 0 -0 -0 -0 -0 0 0 1 1 2 2 1 1 0 -0 -0 -0 0 0 0
9 9 9 9 8 8 7 6 6 5 5 4 4 4 4 4 4 4 3 2 2 1 2 2 2 1 1 1 1 1 1 0 0 0 0 -0 -0 -0 -0 -0 0 0 1 1 1 1 0 -0 -0 0 0 -0 -0 -0
9 9 8 8 8 7 6 6 5 5 4 4 4 4 3 3 3 3 3 2 2 2 2 2 2 2 1 1 1 0 0 0 0 0 0 0 -0 -0 -0 -0 -0 0 1 1 1 1 0 -0 0 0 0 0 -0 -0
8 8 7 7 7 6 6 5 5 5 4 4 3 3 3 3 3 2 2 2 2 1 1 1 2 2 1 1 0 -0 -0 0 0 0 -0 -0 -0 -0 -0 -0 -0 0 0 1 1 1 0 -0 0 0 0 -0 -0 -0
8 7 7 6 6 5 5 5 4 4 4 3 3 2 2 1 1 1 1 1 1 1 0 0 1 1 1 0 0 -0 -0 0 0 0 0 0 0 0 -0 -0 -0 0 0 0 0 0 -0 -0 -0 -0 -0 -0 -0 -0
7 7 6 6 5 5 4 4 3 3 3 3 2 1 1 1 1 1 1 0 0 0 0 0 0 0 0 1 0 0 0 0 1 1 1 1 1 1 1 1 1 0 0 0 0 0 0 0 0 0 0 0 0 0
7 7 6 5 5 4 4 3 3 3 2 2 1 1 1 1 1 0 0 -0 0 0 0 0 0 1 1 1 1 1 1 1 1 1 1 1 2 2 3 3 2 2 2 1 1 1 2 2 2 2 1 1 1 2
6 6 5 5 4 4 3 3 2 2 2 1 1 1 1 1 1 1 0 0 0 0 1 1 1 1 1 1 1 1 2 2 2 2 2 2 2 3 3 3 3 3 3 3 3 3 3 3 3 3 3 3 3 3
5 5 4 4 4 3 3 3 2 2 2 1 1 2 2 2 1 1 1 1 1 1 1 1 1 2 2 2 2 2 2 2 2 2 2 3 3 3 3 3 3 3 3 3 3 3 3 3 4 4 4 4 4 4
4 3 3 3 3 3 3 3 2 2 2 2 2 3 3 3 2 2 2 2 1 1 1 2 2 3 3 3 4 3 2 2 2 3 3 3 3 3 3 3 3 4 4 4 3 3 3 4 4 4 4 4 4 4
3 3 3 3 3 3 3 2 2 2 2 3 3 3 3 3 3 3 2 2 2 2 2 2 3 3 4 5 5 4 3 3 3 3 3 4 4 3 3 4 4 4 4 4 4 4 4 4 4 5 5 5 5 5
3 3 3 3 3 3 2 2 2 2 3 4 4 3 3 3 3 2 2 2 2 2 2 2 3 4 4 5 5 5 4 4 4 4 4 5 5 5 5 5 5 5 5 5 5 5 5 5 5 6 6 6 6 7
3 3 3 3 3 3 3 3 3 4 4 4 4 3 2 2 2 2 2 2 2 1 2 3 4 5 6 6 6 6 6 5 5 5 5 6 6 6 7 7 7 7 7 6 6 6 6 6 6 6 7 7 7 7
4 4 4 4 4 3 3 4 4 4 4 4 3 3 2 2 2 2 2 2 1 1 2 3 5 7 8 8 8 8 7 7 6 6 6 7 7 7 7 7 7 7 7 7 7 7 7 7 7 7 7 7 7 7
4 4 5 4 4 3 3 3 3 3 3 3 3 2 2 2 2 1 1 1 1 2 3 4 5 8 9 10 10 9 9 8 7 7 7 7 7 7 7 7 7 7 7 7 7 8 8 8 7 7 7 7 7 7